XW-2C

Last updated on Sat Feb 08 2025 00:03:03 GMT+0000 (Coordinated Universal Time)

1 40906U 15049H 25038.82195859 .00734258 26457-3 11820-2 0 9993 2 40906 97.4429 73.7819 0004114 165.2962 194.8439 16.03577753521215
UTC large
Height (km)
Speed (km/s)
/
Latitude / Longitude
Inclination (degrees)
Orbital Period (minutes)
Azimuth
Elevation
Range (km)
Doppler Factor

Next 0 passes for location: London (51.5072 / 0.1276)

Sorry there are no passes over London.